FM DX Radio

87.5 - 108 Mhz FM DX Radio received in Telford

  • Log File Oct-2010

  • Date/Time PI Code Freq RDS Name Country Transmitter Dist Power KW Notes Prop
    14-Oct-2010 16:58220187.8_RTE__1_IRLClermont Carn185.340 Tropo
    13-Oct-2010 06:07220187.8_RTE__1_IRLClermont Carn185.340 Tropo
    12-Oct-2010 20:38F20193.5__INTER_FRennes/Saint-Pern304.8100 Tropo
    12-Oct-2010 20:33CB1495BBC_TeesGBilsdale West Moor128.69.5 Tropo
    12-Oct-2010 19:29F20195.1__INTER_FLaval-Evron/Mont Rochard322.87 Tropo
    12-Oct-2010 19:02F20199.6__INTER_FCaen/Mont Pinçon269.6100 Tropo
    12-Oct-2010 18:25C361102.9HEART___GHannington109.13.4 Tropo
    12-Oct-2010 18:19F20298.3_CULTUREFRennes/Saint-Pern304.8100 Tropo
    12-Oct-2010 18:14F20196.5__INTER_FRouen/Grand-Couronne277.2100 Tropo
    12-Oct-2010 17:39F20288_CULTUREFAlençon/Mont d'Amain304.313 Tropo
    12-Oct-2010 07:03F20294_CULTUREFRouen/Grand-Couronne277.2100 Tropo
    12-Oct-2010 06:55F20391.8_NRK_P3_NORBjerkreim527.660 Tropo
    12-Oct-2010 06:43841B87.9ZEELAND_HOLGoes/Alticom Toren283.715.1 Tropo
    12-Oct-2010 06:38D391107.9_1LIVE__DMünster/Baumberg420.625 Tropo
    12-Oct-2010 06:36C71A104.1BBCBerksGHannington109.14 Tropo
    12-Oct-2010 06:31C5B297.4COOL_FM_GBlack Mountain195.83.2 Tropo
    12-Oct-2010 06:25F20292.5_NRK_P2_NORGreipstad558.257.5 Tropo
    11-Oct-2010 23:01D389106.3HitRadio Antenne_DTorfhaus/DTAG556100 Tropo
    11-Oct-2010 22:56F20299.9_CULTUREFBoulogne-sur-Mer/Mont Lambert224.21 Tropo
    11-Oct-2010 22:54F20199.6__INTER_FCaen/Mont Pinçon269.6100 Tropo
    11-Oct-2010 22:49F20A94.7BLEUNORDFLille/Bouvigny le Mont [62]271.6126 Tropo
    11-Oct-2010 22:33F201103.7__INTER_FLille/Bouvigny le Mont [62]271.6126 Tropo
    11-Oct-2010 22:20F20188_NRK_P1_NORGulen646.238.9 Tropo
    11-Oct-2010 22:1983C6101.5SKYRADIOHOLRotterdam/Alticom Toren299.98.3 Tropo
    11-Oct-2010 22:03F20388.7MUSIQUE_FLille/Bouvigny le Mont [62]271.6126 Tropo
    11-Oct-2010 21:4483D390.2100%_NL_HOLRoosendaal/Alticom Toren30750.1 Tropo
    11-Oct-2010 21:30820396.2__3FM___HOLMarkelo/Alticom Toren378.9100 Tropo
    11-Oct-2010 21:28820396.8__3FM___HOLIJsselstein/Gerbrandytoren-Alticom323.2100 Tropo
    11-Oct-2010 21:09D388102.4__ffn___DTorfhaus/DTAG556100 Tropo
    11-Oct-2010 20:54D391106.7_1LIVE__DLangenberg/Hordtberg420.9100 Tropo
    11-Oct-2010 20:15D36387.6__hr3___DSackpfeife (Biedenkopf)487.3100http://www.hr-online.de/website/radio/hr3/index.jsp?rubrik=2766Tropo
    11-Oct-2010 19:52D391107.9_1LIVE__DMünster/Baumberg420.625 Tropo
    11-Oct-2010 19:40D388102.3__ffn___DSteinkimmen459.1100 Tropo
    11-Oct-2010 19:33F20197.6_NRK_P1_NORLyngdal531.350 Tropo
    11-Oct-2010 19:27D22097.4DKULTUR_DBrocken559.5100 Tropo
    11-Oct-2010 19:22F20294.8_NRK_P2_NORBergen/Ulriken611.346 Tropo
    11-Oct-2010 19:15F20395_NRK_P3_NORLyngdal531.350 Tropo
    11-Oct-2010 19:10F20391.8_NRK_P3_NORBjerkreim527.660 Tropo
    11-Oct-2010 19:03820288RADIO_2_HOLSmilde/Alticom Toren373.5100 Tropo
    11-Oct-2010 19:01F20188_NRK_P1_NORGulen646.238.9 Tropo
    11-Oct-2010 07:11D210102.8__DLF___DWesel-Büderich392.450 Tropo
    11-Oct-2010 07:04D378101.3ANTENNE_ ___MV___ DSchwerin583.2100 Tropo
    11-Oct-2010 06:57F20390.2MUSIQUE_FNeufchâtel-en-Bray/Croixdalle261.55 Tropo
    11-Oct-2010 06:4183C6101.3SKYRADIOHOLRoosendaal/Alticom Toren3075.1 Tropo
    11-Oct-2010 06:39630199.9RADIO_1_BELGenk/VRT Zendmast363.520dipoleTropo
    11-Oct-2010 06:33841B87.9ZEELAND_HOLGoes/Alticom Toren283.715.1 Tropo
    11-Oct-2010 06:31F20288_CULTUREFAlençon/Mont d'Amain304.313 Tropo
    11-Oct-2010 06:24D22095.3DKULTUR_DSchwerin583.2100 Tropo
    11-Oct-2010 06:18D38389.9NDR_KultDTorfhaus (Harz-West)556100 Tropo
    11-Oct-2010 06:09D391107.9_1LIVE__DMünster/Baumberg420.625 Tropo
    11-Oct-2010 06:08D3E9104.1_delta__DBungsberg/Elisabethturm555.550 Tropo
    11-Oct-2010 06:07D210101.9__DLF___DBungsberg/Elisabethturm555.595 Tropo
    11-Oct-2010 06:00F20196.5__INTER_FRouen/Grand-Couronne277.2100 Tropo
    11-Oct-2010 05:57F20294_CULTUREFRouen/Grand-Couronne277.2100 Tropo
    10-Oct-2010 22:378201104.8RADIO_1_HOLRoermond/Alticom Toren376.7100 Tropo
    10-Oct-2010 22:31820399.8__3FM___HOLGoes/Alticom Toren283.715.1 Tropo
    10-Oct-2010 22:23820494.5RADIO4NLHOLRoermond/Alticom Toren376.7100 Tropo
    10-Oct-2010 22:20820390.9__3FM___HOLRoermond/Alticom Toren376.7100 Tropo
    10-Oct-2010 22:15630389.9Klara___BELGenk/VRT Zendmast363.520 Tropo
    10-Oct-2010 22:02F20199.6__INTER_FCaen/Mont Pinçon269.6100 Tropo
    10-Oct-2010 21:149205103.9NOVA_FM_DNKNæstved - Øverup/Køgevej 291609.3100 Tropo
    10-Oct-2010 20:526305101.5__MNM___BELEgem271.140dipoleTropo
    10-Oct-2010 20:506304100.6STU_BRU_BELSint-Pieters-Leeuw/Norkring Toren317.625dipoleTropo
    10-Oct-2010 20:47630199.9RADIO_1_BELGenk/VRT Zendmast363.520dipoleTropo
    10-Oct-2010 20:44630297.5RADIO_2_BELSchoten315.510dipoleTropo
    10-Oct-2010 20:29820495RADIO4NLHOLGoes/Alticom Toren283.715.1dipoleTropo
    10-Oct-2010 20:25CC1194.9BBCLondnGLondon/Crystal Palace135.14dipoleTropo
    10-Oct-2010 20:19C48C106.8_JACKfm_GOxford/Boars Hill83.60.3dipoleTropo
    10-Oct-2010 20:11D358103.6RADIO_HHDHamburg-Moorfleet527.380 Tropo
    10-Oct-2010 19:47D379104.8_OSTSEE_DMarlow629.8100 Tropo
    10-Oct-2010 18:40920392.9DR_P3___DNKHolstebro - Mejrup/Kalsgårdvej 11516.760 Tropo
    10-Oct-2010 18:19841693.1RADIO_M_HOLIJsselstein/Gerbrandytoren-Alticom323.24 Tropo
    10-Oct-2010 17:44841B87.9ZEELAND_HOLGoes/Alticom Toren283.715.1 Tropo
    10-Oct-2010 17:3083C7102.1RADIO538HOLHilversum/Media Park-Alticom325.197.7 Tropo
    10-Oct-2010 17:2683C6101.9SKYRADIOHOLGoes/Alticom Toren283.749dipoleTropo
    10-Oct-2010 17:24820396.8__3FM___HOLIJsselstein/Gerbrandytoren-Alticom323.2100 Tropo
    10-Oct-2010 17:19820494.8RADIO4NLHOLSmilde/Alticom Toren373.5100dipoleTropo
    10-Oct-2010 17:17820191.8RADIO_1_HOLSmilde/Alticom Toren373.5100 Tropo
    10-Oct-2010 17:12220187.8_RTE__1_IRLClermont Carn185.340 Tropo
    10-Oct-2010 17:10820288RADIO_2_HOLSmilde/Alticom Toren373.5100 Tropo
    10-Oct-2010 14:41D3E189.6NDR_1_SHDFlensburg-Engelsby512.925 Tropo
    10-Oct-2010 14:33D38487.7NDR_InfoDFlensburg-Engelsby512.910 Tropo
    10-Oct-2010 11:209204102.3DR_P2___DNKKøbenhavn-Gladsaxe/Isbanevej 4642.360 Tropo
    10-Oct-2010 11:169204101.6DR_P2___DNKNæstved - Øverup/Køgevej 291609.3100 Tropo
    10-Oct-2010 10:58D38390NDR_KultDAurich420.125 Tropo
    10-Oct-2010 10:34920195.1DR_P1___DNKRangstrup/Gammel Tøndervej 28505.860 Tropo
    10-Oct-2010 10:32920393.9DR_P3___DNKKøbenhavn-Gladsaxe/Isbanevej 4642.360 Tropo
    10-Oct-2010 10:31920190.2DR_P1___DNKHolstebro - Mejrup/Kalsgårdvej 11516.760 Tropo
    10-Oct-2010 10:23920188.7DR_P1___DNKØlgod/Baunshøjvej 7/Baunshøj49710 Tropo
    10-Oct-2010 10:21D38487.9NDR_InfoDHeide/Welmbüttel495.915 Tropo
    10-Oct-2010 10:14E20187.7SR_P1___SHalmstad/Oskarström-Slättåkra TM678.560 Tropo
    10-Oct-2010 10:11920188.1DR_P1___DNKÅrhus/Søsterhøj/Ny Moesgårdsvej564.360 Tropo
    10-Oct-2010 10:09920587.8NOVA_FM_DNKØlgod/Baunshøjvej 7/Baunshøj49710 Tropo
    10-Oct-2010 10:04D220107.7DKULTUR_DCuxhaven/Otterndorf478.320 Tropo
    10-Oct-2010 09:58D3E9104.1_delta__DBungsberg/Elisabethturm555.550 Tropo
    10-Oct-2010 09:529204102.1DR_P2___DNKRangstrup/Gammel Tøndervej 28505.860 Tropo
    10-Oct-2010 09:49D210101.8__DLF___DAurich420.1100 Tropo
    10-Oct-2010 09:48D38299.8_NDR_2__DSteinkimmen459.1100 Tropo
    10-Oct-2010 09:479C0299.9DRP4_SYDDNKRangstrup/Gammel Tøndervej 28505.860 Tropo
    10-Oct-2010 09:46920399.6DR_P3___DNKNæstved - Øverup/Køgevej 291609.3100 Tropo
    10-Oct-2010 09:42950297.7DRP4_M/VDNKØlgod/Baunshøjvej 7/Baunshøj49710 Tropo
    10-Oct-2010 09:41990297.5DRP4_SJLDNKNæstved - Øverup/Køgevej 291609.3100 Tropo
    10-Oct-2010 09:39920194.8DR_P1___DNKNæstved - Øverup/Køgevej 291609.3100 Tropo
    10-Oct-2010 09:38D38394.4NDR_KultDSteinkimmen459.1100 Tropo
    10-Oct-2010 09:37920391.7DR_P3___DNKÅrhus/Søsterhøj/Ny Moesgårdsvej564.360 Tropo
    10-Oct-2010 09:35920190.8DR_P1___DNKKøbenhavn-Gladsaxe/Isbanevej 4642.360 Tropo
    10-Oct-2010 09:32D45190.3NDR_90,3D3527.380 Tropo
    10-Oct-2010 09:28D38389.9NDR_KultDTorfhaus (Harz-West)556100 Tropo
    10-Oct-2010 09:22D38287.6_NDR_2__DHamburg-Moorfleet527.380 Tropo
    09-Oct-2010 11:33F20391.8_NRK_P3_NORBjerkreim527.660 Tropo
    08-Oct-2010 19:00CB1394.9BBCLincsGBelmont107.16 Tropo
    08-Oct-2010 18:23C3A4106.2__REAL__GEmley Moor73.12.4 Tropo
    08-Oct-2010 18:21C3AC106.4__Kiss__GIpswich/Mendlesham155.520 Tropo
    07-Oct-2010 07:15CB1394.9BBCLincsGBelmont107.16 Tropo